Theta_e
285 286 286 287 286 286 285 285 285 284 285 285 282 283 285 284 279 277 282 284 282 284 287 288 290 290 289 289 289 288 288 287 286 285 284 283 283 283 283 283 284 284 284 284 285 285 285 286 285 286 286 286 287 286 286 286 286 285 286 285 284 283 283 283 284 284 284 284 286 286 285 285 284 284 283 283 284 285 285 285 286 286 286 286 285 285 286
284 285 285 286 284 285 285 285 285 286 285 284 284 284 285 284 282 283 283 283 283 285 286 288 290 290 291 290 290 288 286 285 285 285 285 284 283 283 283 283 284 284 284 285 285 285 285 285 285 285 285 286 286 286 285 285 285 285 285 284 283 283 283 283 283 283 283 283 284 284 284 283 283 282 282 282 283 283 284 285 285 285 285 285 285 285 285
281 284 285 286 285 284 282 284 285 285 285 284 284 284 284 284 282 283 283 282 281 286 289 290 289 289 289 287 284 283 284 284 284 284 284 284 284 284 283 283 283 284 284 285 285 285 285 285 285 285 286 286 285 285 285 285 285 285 285 283 283 282 282 283 283 283 282 282 283 283 283 282 281 281 280 280 280 282 283 284 284 285 284 284 284 285 285
278 283 283 283 283 283 281 280 282 282 282 280 282 281 284 282 280 281 281 279 279 285 288 288 287 285 284 284 284 283 283 283 283 283 284 284 284 284 284 283 284 284 284 284 284 284 285 285 285 285 285 285 284 284 284 284 284 285 284 283 282 282 282 282 282 282 281 281 281 282 282 281 280 280 279 279 279 280 282 283 284 284 283 284 284 284 284
275 280 282 280 279 278 275 277 280 282 282 283 284 284 285 284 284 279 277 278 282 283 285 284 284 285 284 283 283 282 283 283 282 282 282 284 284 284 284 284 284 284 284 284 285 285 285 285 285 286 286 284 284 284 284 284 284 283 283 282 282 281 281 281 281 281 281 280 280 280 281 280 280 279 278 278 278 278 279 281 283 283 283 283 283 284 284
275 279 279 279 274 268 270 283 285 284 281 282 280 280 282 283 284 281 282 280 280 281 281 281 282 282 281 282 283 284 282 282 282 283 283 284 284 284 284 284 284 284 285 285 285 285 285 286 286 286 285 284 284 284 284 284 283 282 282 282 281 281 281 281 280 281 280 280 279 280 280 279 279 278 277 277 277 277 278 279 281 282 282 282 282 282 283
274 277 277 273 267 269 282 284 286 285 284 283 281 281 282 283 283 283 281 280 280 282 282 281 281 281 281 282 282 283 283 283 283 282 283 283 283 284 284 284 284 284 284 285 285 285 285 285 285 285 284 284 284 283 283 282 282 281 281 281 280 280 280 280 280 280 279 279 279 279 279 278 278 277 276 276 276 276 276 277 278 279 280 280 281 281 281
277 275 273 266 266 277 278 282 283 284 282 282 281 279 282 282 283 283 282 283 282 281 279 281 281 280 281 282 283 283 284 285 284 283 283 284 284 284 284 284 284 284 285 285 285 285 286 285 284 284 283 284 282 282 282 281 280 280 280 279 279 279 279 279 279 279 279 278 278 278 278 277 276 275 275 275 274 275 275 276 276 278 278 279 279 280 280
270 273 272 271 277 276 277 278 280 281 278 279 279 274 277 283 280 281 279 280 281 279 278 279 280 280 281 279 280 284 284 285 286 285 284 285 285 285 285 285 285 286 286 286 286 285 285 284 283 283 283 283 281 281 280 279 279 279 279 278 278 278 278 278 278 278 278 277 277 277 277 276 275 274 274 273 274 274 273 273 274 275 276 277 278 278 278
278 272 270 271 271 267 273 279 279 282 282 281 281 278 274 281 280 282 281 278 277 277 278 279 279 281 277 274 277 282 284 285 286 285 286 285 285 285 285 286 286 286 286 286 285 285 283 283 283 283 283 281 280 279 278 278 277 277 277 277 277 277 277 277 277 277 277 276 275 275 275 274 273 273 273 273 273 273 272 272 272 273 275 276 277 277 277
275 272 269 268 267 269 277 274 278 280 281 282 282 277 272 279 278 280 280 278 277 276 277 278 280 277 273 274 278 282 284 284 284 283 283 284 284 285 285 285 285 286 286 285 284 283 283 282 283 282 281 280 278 277 277 276 276 275 275 276 276 275 275 276 276 275 275 275 274 273 273 273 272 272 271 271 272 272 272 272 272 273 274 275 275 275 275
273 272 269 267 271 270 275 278 280 282 283 283 278 267 268 278 277 280 280 278 278 277 278 278 279 276 272 275 278 282 283 283 284 283 283 283 283 284 285 285 285 285 284 284 283 282 282 281 282 281 280 278 277 275 275 275 274 274 274 274 275 274 274 274 274 273 273 272 272 272 271 271 271 271 271 271 271 271 271 271 271 271 272 272 272 272 273
272 273 270 272 272 278 279 279 281 282 284 279 269 264 273 278 279 281 281 280 280 280 278 279 277 279 280 280 282 283 284 283 283 284 285 284 285 284 285 285 284 283 283 283 282 281 281 281 279 278 277 276 274 274 273 273 272 273 273 273 272 272 272 272 271 271 270 270 270 270 270 269 269 269 269 270 270 269 269 269 269 270 270 270 270 270 271
270 271 269 269 272 278 280 280 281 283 277 268 268 276 280 280 280 282 281 281 281 281 279 279 279 280 282 282 283 282 283 283 283 284 284 284 284 285 285 284 283 282 282 281 280 280 280 278 277 276 275 273 273 272 271 270 271 271 271 271 270 270 269 269 268 267 267 267 267 267 267 267 267 267 267 268 268 268 268 268 267 267 268 268 268 268 269
273 272 268 267 263 276 280 279 277 280 273 274 279 278 280 283 282 282 282 282 282 281 280 281 281 281 281 281 282 282 282 282 282 283 283 283 283 283 282 282 282 281 279 279 278 277 277 276 275 274 273 271 270 270 269 269 269 269 269 268 267 267 266 265 265 265 265 265 265 265 265 265 265 264 265 265 265 266 266 266 266 266 266 266 266 266 267
268 268 266 267 274 278 282 279 274 279 280 282 283 280 278 283 282 281 281 282 282 282 281 280 280 281 281 281 282 282 282 282 283 283 283 283 283 282 282 281 279 277 276 276 275 274 274 274 273 272 271 269 269 268 267 268 268 267 266 266 265 264 263 263 263 263 263 263 263 263 263 263 263 263 263 263 264 264 264 264 264 264 265 265 266 266 266
273 270 273 278 281 280 282 282 281 282 283 284 282 282 282 281 281 283 281 281 282 282 281 281 280 280 281 281 281 281 281 282 282 282 282 281 281 280 279 278 276 274 273 272 271 271 272 271 271 270 269 267 266 265 266 266 265 264 264 263 262 262 261 261 261 262 262 262 262 262 262 262 262 262 262 262 262 263 263 263 263 263 264 265 265 265 266
279 280 280 281 280 281 281 283 283 282 283 284 284 283 281 282 283 283 281 282 282 282 282 280 280 280 280 281 281 281 282 282 282 282 281 280 280 279 277 275 273 271 271 270 269 269 269 270 269 268 267 266 263 264 265 264 264 263 262 261 261 260 260 261 261 261 261 261 261 262 262 262 262 262 261 261 261 261 262 262 262 262 263 263 264 264 265
274 269 278 278 278 280 281 281 283 284 284 283 283 282 282 282 283 282 283 282 282 282 282 281 280 280 281 281 281 281 281 281 281 280 279 278 276 275 273 273 271 270 269 267 267 267 266 267 267 266 265 264 264 264 263 263 263 262 261 260 260 260 260 260 260 260 260 260 261 261 261 261 262 262 262 261 261 261 261 261 261 261 262 263 263 263 263
273 273 277 279 280 281 281 281 281 281 282 283 283 283 283 283 283 283 283 283 282 282 280 281 280 280 281 280 280 280 280 279 279 277 276 274 273 273 272 270 269 268 267 266 265 265 264 265 264 264 263 262 262 262 262 262 262 261 260 260 259 259 259 260 260 260 260 261 260 260 261 261 260 261 261 261 260 260 260 260 260 260 261 261 261 262 262
276 278 279 279 280 280 280 281 282 282 282 282 282 283 283 283 282 282 283 283 282 281 281 281 280 279 280 280 279 278 278 277 276 274 273 271 270 270 269 268 268 266 265 264 264 263 263 263 262 262 261 261 262 261 262 261 261 260 259 260 259 259 259 259 259 260 260 260 260 260 260 260 260 261 260 260 260 261 262 262 261 260 260 260 261 262 262
272 272 275 278 273 273 278 280 281 282 283 283 282 282 282 282 281 282 281 281 280 280 279 279 279 277 278 278 277 275 274 273 272 271 270 269 268 268 268 267 266 265 264 263 262 261 261 262 261 261 260 261 261 261 261 261 260 259 259 259 259 259 259 259 259 259 259 259 259 259 259 259 259 260 263 266 265 262 262 266 268 269 269 264 264 264 264
272 277 279 280 280 279 280 281 282 283 283 283 282 281 281 282 282 282 281 280 277 276 276 277 275 275 275 274 273 271 271 271 270 268 268 267 266 266 265 264 264 263 262 261 260 260 260 260 260 260 259 260 260 260 260 261 260 259 259 259 258 258 258 258 259 259 258 258 258 259 259 259 259 259 259 261 266 268 268 268 268 269 270 270 271 271 267
279 281 281 281 280 278 280 282 282 282 283 282 281 282 282 282 280 278 278 278 278 277 276 273 272 271 271 270 269 268 268 268 267 267 266 266 265 264 264 263 262 261 260 260 259 259 259 259 259 259 259 259 259 260 260 260 260 259 259 258 257 257 258 258 258 258 258 258 258 258 258 259 259 258 258 258 259 264 267 268 268 269 269 270 270 271 271
278 282 282 282 282 282 283 283 283 283 281 281 280 280 281 279 276 275 275 274 272 272 273 272 270 269 267 267 267 266 265 265 265 264 264 263 263 263 263 262 260 260 259 259 259 259 259 259 258 258 258 259 259 260 260 260 260 259 258 258 257 257 257 257 257 258 258 257 258 258 258 258 258 259 258 258 257 258 260 266 267 268 268 269 269 270 270
283 282 283 283 283 282 283 282 282 282 280 279 278 277 273 273 272 272 271 270 270 269 269 268 268 266 265 264 264 263 263 263 263 263 262 261 262 261 260 260 260 260 259 259 258 258 258 258 258 258 258 258 259 260 260 260 259 258 258 257 257 257 257 257 257 257 257 257 258 258 258 258 258 258 258 258 258 258 258 258 260 263 266 268 268 269 269
283 283 282 280 280 280 282 280 279 277 274 274 274 272 271 270 269 268 267 267 266 266 266 265 264 263 262 262 261 261 261 261 261 260 261 261 260 260 260 260 259 258 258 257 257 257 258 258 258 257 258 259 260 260 260 259 258 258 258 258 258 258 258 258 257 257 258 258 258 258 258 258 258 258 258 259 259 258 258 258 258 258 259 261 265 268 265
283 283 283 278 277 279 280 275 273 273 272 271 271 269 268 267 266 265 264 265 264 264 264 262 261 260 260 261 260 259 260 259 258 259 259 259 260 260 259 258 258 258 257 257 256 257 257 257 257 258 258 259 260 260 259 259 258 258 258 258 258 258 258 258 258 258 258 258 258 258 258 258 259 259 259 259 259 259 259 260 259 259 260 261 262 266 268
282 282 283 282 279 275 273 273 272 271 269 268 267 266 265 264 263 264 265 266 264 263 263 262 260 260 259 259 259 258 258 258 257 257 258 259 258 258 258 257 257 257 256 256 256 257 257 258 258 258 258 259 259 259 259 259 258 258 258 258 257 257 258 258 258 258 258 259 259 259 260 260 260 259 260 260 260 260 260 259 259 260 260 260 261 262 265
281 276 274 274 272 272 273 271 272 271 268 267 266 264 264 264 265 265 265 263 262 261 262 260 259 258 258 257 257 257 256 256 256 257 257 257 257 257 257 256 256 256 256 257 257 258 258 257 258 257 258 259 259 259 259 258 258 258 257 258 257 258 258 258 258 259 259 259 259 260 260 260 260 260 259 259 259 259 259 259 260 260 260 260 262 261 260
270 269 269 269 268 269 270 271 270 269 267 265 265 264 263 263 263 264 263 262 261 260 260 258 258 257 257 256 256 257 256 256 256 256 256 256 256 256 256 256 255 255 255 256 256 257 257 257 257 257 259 259 259 259 258 258 257 257 258 258 258 258 259 259 260 259 259 259 259 259 259 259 259 259 259 259 259 259 260 260 260 260 260 260 261 261 262
267 265 265 267 267 267 266 267 268 267 266 265 263 263 263 262 261 261 261 259 259 258 258 257 256 256 257 257 256 256 255 254 254 254 254 254 255 255 255 256 256 256 256 256 257 257 257 257 257 258 259 259 258 258 258 257 257 257 257 257 257 257 258 259 258 259 259 259 259 259 259 259 259 260 260 259 259 259 260 260 260 260 260 261 261 261 263
266 267 267 265 262 262 263 265 266 265 263 262 262 262 261 260 259 259 258 258 257 257 257 256 256 256 256 255 254 254 254 253 253 253 252 253 254 255 255 256 256 256 257 257 257 257 257 257 257 259 258 258 258 258 258 257 257 257 257 257 257 257 258 259 259 259 259 259 259 259 259 260 260 260 260 260 260 260 260 260 260 261 261 261 262 263 264
271 272 270 267 267 269 267 265 264 263 262 262 261 259 259 259 258 257 256 256 256 255 255 255 256 255 255 254 253 253 252 252 252 253 254 254 254 254 255 256 256 256 257 257 257 258 258 259 259 258 258 258 257 258 258 257 257 257 257 256 257 257 257 258 259 259 259 259 259 260 260 260 260 260 260 261 261 261 261 261 261 262 262 262 263 264 266
264 262 262 261 260 259 260 262 261 261 260 259 258 257 257 257 256 255 256 255 254 255 256 256 255 254 254 253 252 252 251 251 251 252 252 253 254 254 254 255 255 256 255 256 257 258 258 258 257 257 257 257 257 257 257 257 257 256 256 257 257 257 257 258 258 258 258 259 259 259 260 260 260 261 262 262 262 262 262 262 262 263 263 263 263 265 266
260 259 257 256 255 255 255 256 256 256 256 256 256 255 255 254 254 254 254 254 255 256 255 255 254 253 252 252 251 251 252 252 252 252 252 253 253 254 254 254 254 254 254 255 257 257 258 257 258 258 258 257 257 257 257 257 257 257 257 257 257 257 258 258 258 258 259 259 259 260 260 261 261 261 262 262 262 263 263 263 263 264 264 264 265 265 266
258 257 256 256 255 255 254 254 254 253 254 253 253 253 253 253 253 254 254 254 254 254 254 253 252 252 251 251 251 252 251 251 252 252 252 252 253 253 253 253 254 254 255 255 257 258 257 257 258 258 257 257 256 256 257 257 257 257 257 257 257 257 257 257 257 258 258 259 259 259 260 260 260 261 261 262 262 262 262 262 263 263 263 264 265 265 265
255 255 255 254 253 253 253 252 252 252 251 251 251 252 252 252 252 252 252 253 253 253 253 253 252 252 252 252 251 251 250 251 250 250 251 251 251 251 252 253 255 256 256 257 258 257 257 257 257 257 256 256 256 256 257 257 258 257 256 256 256 256 257 257 257 257 258 258 259 259 259 259 259 259 260 261 261 261 261 261 261 262 262 262 262 262 262
255 255 254 253 253 252 252 252 251 250 251 250 250 250 251 252 252 252 251 251 252 252 252 251 252 251 251 250 250 250 250 250 250 250 250 250 251 252 253 254 255 256 256 258 258 257 257 257 257 256 256 255 256 256 257 257 257 256 256 256 256 256 256 257 257 257 257 258 258 258 258 258 259 259 259 259 260 260 261 260 260 261 260 260 261 261 261
255 254 253 253 252 252 252 252 251 251 251 250 250 250 251 251 251 251 251 251 252 252 251 251 250 250 250 250 249 250 250 250 250 250 250 251 252 252 254 255 256 256 257 258 257 257 257 257 256 255 255 256 256 256 257 257 257 256 256 256 256 256 256 256 256 256 256 257 257 258 257 257 258 258 259 259 259 259 259 259 259 259 259 259 259 259 259
254 254 254 253 252 252 252 251 251 251 250 250 250 250 250 250 251 250 249 249 250 251 251 250 250 250 249 249 249 249 250 251 250 250 251 251 252 253 255 255 257 256 256 257 257 257 257 256 256 255 255 256 256 256 256 256 256 256 256 256 256 255 255 256 256 256 256 256 256 256 256 256 257 257 257 257 258 258 258 258 258 258 258 258 258 258 258
254 253 253 253 253 252 251 251 251 250 250 250 250 250 250 251 250 249 250 250 250 250 249 249 250 250 249 249 249 250 249 250 250 251 251 252 253 254 254 256 258 258 258 257 257 256 256 255 256 256 255 256 256 256 256 256 256 255 255 255 255 255 255 255 255 255 256 256 256 256 256 256 256 256 256 257 257 257 257 257 257 257 257 257 257 257 257
252 251 251 251 251 250 250 250 250 250 250 251 251 250 250 250 249 249 249 249 249 249 249 249 249 250 250 249 249 249 249 250 251 251 253 254 254 255 255 256 258 258 257 257 256 256 256 256 256 255 256 256 255 256 256 256 256 255 255 255 255 255 255 255 255 255 255 255 255 255 255 255 255 256 256 256 256 256 257 256 256 256 257 257 257 257 257
250 250 250 249 250 250 250 250 250 250 249 251 252 251 250 249 249 249 249 249 249 249 249 249 249 249 249 249 249 250 252 254 255 256 256 256 256 256 257 257 257 257 257 256 256 256 256 256 255 255 255 255 255 255 255 255 255 256 255 254 254 254 254 254 255 255 254 255 255 255 255 255 255 255 255 255 255 256 256 257 257 257 257 257 257 257 257
250 250 249 250 249 249 249 250 249 249 250 250 250 249 249 249 249 249 248 248 248 249 250 250 250 251 251 251 252 253 254 256 256 256 255 255 255 257 257 257 257 257 256 256 256 256 255 255 255 255 255 255 255 255 255 255 255 255 255 254 254 254 254 254 254 254 254 254 255 255 255 255 255 255 255 255 256 256 256 256 257 257 257 257 257 256 257
249 249 249 249 248 248 249 249 249 249 248 248 248 249 249 249 249 249 249 248 248 249 250 251 251 252 252 252 253 254 255 256 257 257 257 256 256 257 258 257 256 256 256 256 255 255 255 255 255 255 255 255 255 255 255 255 255 255 254 254 254 254 254 254 254 254 254 254 254 254 254 255 255 255 255 255 255 255 256 256 257 257 257 257 257 257 257
248 248 247 246 247 247 246 247 247 247 247 247 247 248 251 250 250 251 251 251 250 250 250 251 252 252 253 253 254 255 255 256 257 258 258 258 258 257 257 257 256 256 255 255 255 255 255 254 254 254 254 254 254 254 254 255 254 254 254 254 254 254 254 254 254 254 254 254 254 254 254 254 254 254 255 255 255 255 255 255 255 256 256 256 256 256 256
246 246 246 245 245 245 245 244 243 244 245 247 248 250 250 251 250 251 251 252 252 251 252 252 253 253 254 255 256 257 257 255 254 256 258 257 257 257 257 256 256 255 255 255 255 255 255 254 254 254 254 254 254 254 254 255 254 254 254 253 253 254 253 253 253 253 253 254 253 253 253 253 253 254 254 254 255 255 255 255 255 255 255 255 255 255 255
245 245 245 245 244 244 244 246 247 249 250 250 249 251 251 251 251 252 253 253 252 253 254 253 253 254 256 257 257 257 257 257 256 255 257 257 256 256 257 256 256 255 255 254 254 254 255 254 254 254 254 254 254 254 254 254 254 254 254 253 253 254 254 253 253 253 253 253 253 253 253 253 253 253 253 254 254 254 254 254 254 254 254 255 255 255 255
245 246 247 249 249 248 248 250 251 251 251 252 251 252 252 253 253 254 255 255 255 255 255 255 256 256 257 257 257 257 257 256 257 257 256 256 256 256 256 256 255 255 254 254 253 254 254 254 254 254 253 254 254 254 254 254 253 253 253 253 253 253 253 253 253 253 253 252 252 253 253 253 253 253 253 253 253 253 254 254 254 254 255 255 254 254 254
249 249 250 250 250 250 247 248 249 250 250 251 251 253 253 253 253 254 254 254 255 254 254 255 256 256 257 256 256 257 256 256 256 256 256 256 256 256 255 255 255 254 254 254 254 254 254 254 254 253 253 253 254 254 254 253 253 253 253 253 253 253 253 253 252 252 252 252 252 252 252 252 252 252 252 252 253 253 253 253 253 253 253 254 254 254 254
246 247 248 249 250 249 249 249 249 250 250 252 253 253 253 253 254 254 254 255 254 254 254 254 254 256 257 256 256 256 256 256 256 256 256 256 255 255 255 255 255 255 255 254 254 254 254 254 253 253 253 253 253 253 253 253 253 252 253 253 253 253 252 252 252 251 251 251 252 252 252 252 251 251 252 252 252 252 252 252 252 252 252 253 253 253 253
Wind_Speed
18 19 20 19 18 16 17 18 18 19 19 15 16 17 17 14 11 18 15 18 19 17 18 20 19 14 9 10 11 10 9 8 9 8 9 8 8 6 6 5 5 5 5 5 5 5 5 5 6 6 6 6 6 6 7 8 8 8 8 8 9 10 10 10 9 9 8 8 7 7 7 8 9 9 9 10 10 9 8 8 7 8 8 8 9 10 8
16 19 19 18 17 18 18 18 20 20 19 22 22 22 20 20 20 19 18 21 24 21 21 22 20 9 8 7 7 7 8 8 8 9 9 8 7 6 5 5 4 4 4 5 5 5 5 6 6 6 6 6 6 7 7 7 7 8 7 8 9 9 9 9 9 9 10 9 8 7 7 6 8 9 10 10 10 10 10 10 9 9 9 9 9 9 10
12 17 19 19 19 17 17 18 19 20 22 22 20 20 22 20 16 21 24 23 22 17 17 10 6 5 4 6 7 6 6 6 7 8 8 7 7 6 5 4 4 4 5 5 5 5 5 5 6 6 6 6 6 7 8 7 8 7 7 8 8 8 10 9 9 9 9 9 9 10 8 7 5 4 8 8 10 11 11 10 11 11 9 9 9 9 10
10 9 10 12 12 12 14 14 17 21 21 19 16 17 14 17 18 20 24 18 17 13 2 2 4 5 5 6 5 5 5 5 5 6 7 8 7 7 6 5 5 5 5 6 5 5 5 5 6 6 6 6 6 7 7 7 7 7 7 7 8 9 9 9 10 10 9 9 10 10 8 8 7 7 7 8 10 11 10 11 12 11 12 12 10 9 9
7 8 9 7 4 7 12 15 18 18 18 18 19 18 17 18 19 18 15 15 4 3 4 2 3 3 2 3 3 4 4 3 4 6 7 7 7 7 6 6 6 6 6 6 6 6 6 6 6 7 6 7 7 7 7 7 7 8 8 8 9 9 9 9 10 9 9 8 9 9 8 7 7 9 10 11 11 10 13 12 10 11 15 13 12 12 11
3 8 9 3 3 12 13 1 3 8 14 14 15 15 15 16 14 9 1 1 2 1 2 2 4 2 2 2 4 3 2 4 6 7 8 8 8 8 7 7 7 7 6 6 7 7 7 7 7 7 7 7 8 7 7 8 8 8 9 9 9 10 10 9 10 10 10 8 9 10 9 8 6 7 10 11 12 10 10 12 11 12 12 13 14 13 11
11 7 7 9 15 14 2 5 3 8 7 5 8 16 18 16 12 11 8 4 3 4 1 2 1 2 3 5 5 5 5 6 7 8 8 9 8 9 9 9 9 8 8 8 9 8 7 7 7 7 8 8 8 8 8 9 8 9 9 10 10 10 10 10 9 7 10 8 10 9 9 9 9 10 10 10 12 11 10 12 13 13 13 13 13 13 13
9 10 10 13 14 2 3 3 2 3 5 8 9 12 12 12 12 13 13 6 4 6 3 2 3 4 6 6 7 8 9 8 9 9 8 9 9 9 9 10 10 10 10 10 10 8 6 6 7 7 8 8 8 8 8 9 10 10 10 9 11 10 10 10 10 10 9 9 10 11 10 9 10 11 10 12 14 11 10 11 12 14 14 13 14 15 14
12 10 13 17 9 14 11 8 5 8 7 7 7 11 5 1 1 3 1 2 6 5 2 2 2 2 4 7 9 9 9 9 9 9 9 9 9 10 11 11 11 11 11 9 6 6 6 6 7 8 8 7 8 9 9 9 8 8 9 9 11 11 10 12 12 11 11 10 11 11 11 13 13 12 14 16 14 10 12 12 13 14 14 15 13 14 16
10 13 12 13 11 13 6 1 4 9 6 5 4 4 6 4 6 4 5 6 5 4 1 2 4 2 1 7 8 8 4 7 6 6 6 8 8 9 10 10 10 10 8 4 5 5 8 9 8 7 8 8 8 9 8 10 9 11 9 11 11 11 12 11 11 11 11 11 12 12 12 12 14 14 14 12 14 11 12 13 15 16 14 15 14 14 15
9 12 13 12 12 10 2 3 3 2 3 2 3 4 10 2 1 3 6 6 5 3 3 3 4 3 5 7 7 6 6 5 4 6 7 8 8 9 9 9 10 9 5 5 6 7 8 9 9 9 9 8 7 8 10 11 10 9 10 12 12 11 13 12 12 11 10 11 12 13 15 15 13 15 14 13 13 13 14 14 15 14 14 15 15 15 15
12 11 11 13 5 4 2 2 2 3 2 3 3 13 11 1 1 3 5 7 6 6 4 3 5 6 7 8 8 8 8 7 5 7 8 9 9 9 9 9 6 3 5 7 9 8 8 9 10 9 8 7 5 8 10 10 9 10 11 11 12 13 13 12 11 10 11 14 15 14 15 15 15 15 14 15 16 14 13 14 15 14 14 15 17 16 15
13 15 12 10 10 6 5 4 3 5 2 1 7 13 5 2 3 4 5 6 6 5 4 3 5 7 9 10 12 11 10 10 9 8 8 9 9 9 8 6 5 5 6 6 7 8 8 9 8 8 7 6 8 9 10 10 9 11 11 12 12 13 13 13 12 13 13 14 16 16 15 16 16 16 15 14 15 16 16 15 15 16 17 17 18 19 17
13 12 14 12 11 7 5 2 8 7 4 6 10 3 2 7 3 4 4 4 4 4 5 8 7 10 11 12 12 13 12 11 10 10 10 11 10 8 5 4 4 4 6 6 8 8 7 7 7 7 6 7 9 10 9 9 10 11 12 13 13 13 13 13 14 15 15 15 16 15 15 15 17 17 16 16 16 16 16 16 18 19 19 17 16 19 19
7 9 11 10 11 2 4 5 4 4 7 6 3 1 0 3 4 5 5 6 8 8 9 11 12 12 13 13 13 12 12 12 11 11 11 11 8 5 4 5 5 5 6 7 8 8 7 7 7 6 6 8 8 8 9 10 11 12 13 13 13 13 14 14 15 17 16 16 16 14 15 16 16 18 18 17 17 17 18 19 19 21 21 20 19 19 18
10 10 10 6 4 3 7 7 4 3 6 7 5 1 3 5 6 5 5 8 9 9 10 11 12 13 13 12 12 12 12 12 11 11 9 5 3 4 5 4 5 6 6 7 8 8 7 6 5 4 5 8 8 8 11 11 12 12 12 12 13 14 14 14 15 15 15 17 17 14 16 15 16 17 17 16 16 16 17 17 18 18 17 16 16 17 19
9 9 10 7 8 2 5 6 7 7 9 7 5 4 7 8 10 8 8 11 11 11 11 11 12 12 11 12 12 12 12 11 10 7 3 2 4 5 5 4 6 5 6 9 10 11 7 4 6 5 4 6 9 11 12 11 11 12 12 13 13 14 15 16 15 15 14 14 14 14 15 15 16 16 17 16 16 15 15 16 16 17 17 16 16 17 17
11 15 15 13 13 17 15 12 10 14 17 15 11 9 8 9 10 8 9 11 11 10 9 10 10 11 11 13 13 12 11 9 6 1 2 3 3 4 5 5 5 5 6 7 8 11 11 6 7 4 4 5 10 13 12 11 12 12 13 14 15 16 16 15 15 14 16 15 15 15 14 12 14 14 15 16 15 15 14 15 16 17 17 17 17 17 17
12 14 12 14 18 19 16 15 15 13 12 11 11 10 12 12 11 11 11 11 10 10 9 10 11 12 12 13 12 10 8 5 4 3 3 3 4 5 4 5 6 6 6 8 9 10 12 8 6 6 7 7 8 10 11 12 13 14 13 15 17 16 16 14 14 13 15 14 14 13 12 13 14 14 15 14 15 16 14 15 16 16 17 17 17 16 17
16 16 15 16 15 16 16 13 12 14 14 14 13 12 11 12 11 11 12 8 9 8 8 10 11 12 11 11 10 7 5 4 4 3 3 4 5 5 5 6 5 5 6 8 10 11 11 10 8 8 7 8 10 11 11 12 13 14 15 14 15 16 16 15 15 14 14 18 17 14 14 13 14 15 14 14 16 15 15 15 15 17 16 17 17 16 17
13 16 19 20 19 18 19 18 16 15 14 14 15 15 14 13 13 11 9 8 9 8 9 8 8 8 8 6 5 5 4 3 3 3 4 5 5 6 6 5 5 6 7 8 9 11 12 10 9 8 8 9 9 11 12 11 13 14 15 17 16 17 17 16 15 14 13 12 13 15 15 15 15 13 14 16 16 18 16 13 16 16 16 17 18 17 18
13 13 14 13 10 10 12 12 11 12 13 14 15 14 11 11 11 10 9 8 5 4 3 4 4 4 5 4 2 2 2 3 3 4 4 4 5 5 5 5 6 7 7 8 11 12 11 9 9 10 10 10 11 10 11 11 12 13 15 16 17 16 14 14 14 13 12 14 13 15 15 16 14 16 19 25 22 17 18 24 31 33 29 21 20 17 19
12 14 16 13 14 15 15 15 13 12 11 12 13 13 12 12 11 8 8 6 4 5 4 2 3 4 3 3 2 1 2 2 3 4 5 5 5 6 6 7 7 6 8 9 11 12 11 9 9 10 11 11 11 11 11 11 12 13 14 15 15 15 14 12 13 14 15 15 15 15 15 16 18 16 15 16 22 29 29 30 31 33 32 35 36 35 26
17 17 16 14 13 14 15 16 15 16 10 8 9 10 11 10 2 2 3 5 7 5 5 3 2 0 0 1 2 2 2 2 3 4 4 5 5 7 7 6 7 9 10 11 11 12 10 9 11 11 12 13 12 12 11 11 10 11 13 14 16 15 14 14 16 17 15 15 15 15 15 15 15 17 16 17 17 19 25 28 29 30 31 32 33 33 35
17 16 16 16 15 16 15 15 16 7 4 4 7 9 8 2 3 2 3 2 1 1 2 3 3 3 1 1 2 2 3 3 4 5 5 6 7 7 6 7 8 8 9 9 10 10 11 11 12 12 13 13 11 11 11 10 11 13 13 13 16 17 16 17 16 16 15 14 15 15 15 15 15 14 15 16 17 17 15 21 27 28 30 31 32 32 33
18 17 17 16 15 16 16 14 13 9 5 6 6 3 3 4 4 3 2 2 2 2 1 1 1 3 5 2 2 3 3 5 5 5 6 6 5 5 6 6 7 7 9 10 11 11 12 13 13 12 13 14 12 12 11 11 11 12 14 15 16 17 16 17 16 15 15 14 14 15 14 15 15 15 15 15 16 16 18 16 15 18 23 27 28 30 30
17 17 14 12 14 16 15 14 10 4 6 5 4 5 5 5 4 3 4 4 3 3 2 3 4 4 3 2 2 3 4 5 5 6 6 6 7 7 5 5 7 9 10 11 11 11 13 12 12 12 14 13 11 11 11 11 12 14 16 17 16 18 24 20 15 15 14 14 14 14 15 14 14 15 16 16 15 16 16 17 17 17 15 15 20 25 23
15 14 13 12 13 14 8 5 6 5 5 5 4 5 4 4 3 3 3 2 3 3 3 4 3 3 2 2 2 4 4 4 5 6 6 8 7 6 6 7 8 9 10 10 12 11 10 11 11 12 14 13 12 11 11 12 14 15 15 14 14 14 14 15 14 13 13 14 14 14 14 15 15 16 16 16 16 15 15 16 17 17 16 14 14 18 30
15 14 12 11 4 4 6 4 4 4 4 5 5 4 4 4 3 3 2 3 3 2 1 2 3 2 2 3 3 4 5 5 6 7 7 8 8 7 7 8 8 9 10 11 11 10 10 10 12 13 14 12 11 11 11 12 12 14 15 14 14 13 13 13 13 13 14 15 15 16 17 17 16 16 16 16 15 15 15 15 16 15 16 15 14 15 18
10 2 2 1 2 1 3 3 4 4 5 4 5 3 2 3 3 3 4 4 3 2 1 1 1 2 2 3 4 4 5 7 7 7 8 8 7 7 7 8 9 9 8 8 8 8 10 12 13 14 13 11 11 11 11 12 14 14 14 14 13 13 12 13 14 15 15 15 16 20 16 15 14 15 15 14 15 15 15 15 16 16 16 15 16 15 15
5 3 4 4 3 1 4 4 3 4 5 3 4 3 3 2 3 3 4 4 2 2 2 2 3 4 4 5 4 6 7 8 8 9 9 9 9 8 8 7 7 8 8 10 11 10 11 12 12 11 11 11 11 11 12 12 13 13 13 12 11 17 22 24 20 15 14 14 15 14 14 14 14 14 15 15 15 14 14 13 14 14 14 13 13 13 14
4 4 3 2 2 2 2 2 3 5 5 4 4 4 5 5 5 5 3 2 3 3 3 4 5 5 5 4 6 7 7 8 8 9 9 8 8 7 7 7 9 11 11 11 10 10 10 12 14 13 11 11 11 11 11 13 13 13 12 12 12 12 14 22 15 16 14 14 14 14 14 14 14 13 14 14 14 14 13 13 14 13 12 13 13 13 13
3 2 5 4 1 2 4 4 5 5 5 5 4 2 2 2 2 2 2 2 2 4 4 5 5 4 4 5 6 7 7 8 9 9 9 8 7 7 7 7 8 9 10 10 10 10 11 12 11 10 11 12 11 11 11 12 13 12 11 11 11 12 13 15 17 15 14 14 13 13 13 13 13 13 14 15 14 14 13 14 13 13 13 13 12 12 13
8 9 4 1 3 5 7 7 5 4 3 3 3 3 3 2 3 2 2 3 4 5 6 6 5 5 5 6 6 7 7 7 7 5 5 7 8 9 9 8 9 9 11 11 10 9 8 9 9 9 11 11 11 11 12 11 12 11 11 11 11 12 12 12 13 12 12 13 13 14 14 14 13 13 13 14 14 13 13 13 13 13 13 13 12 12 16
5 6 6 4 5 4 4 2 4 4 4 5 4 3 3 2 2 3 3 4 6 6 5 6 6 6 5 5 6 6 6 7 8 9 9 8 9 9 9 9 10 9 11 10 9 8 7 7 9 10 10 11 10 11 11 11 10 11 11 11 12 11 11 12 11 12 12 13 13 13 13 13 13 13 15 14 14 14 13 12 12 12 12 12 12 12 13
4 5 5 5 5 5 6 5 4 3 3 2 2 2 2 3 3 4 5 5 4 5 5 6 6 5 5 5 6 7 7 8 8 8 9 9 9 8 8 10 10 11 11 11 8 5 5 8 11 15 12 10 11 11 10 10 10 10 11 11 10 11 11 11 11 11 12 12 12 13 12 15 16 15 14 13 12 12 12 12 12 12 12 12 12 12 11
5 5 5 5 4 5 5 4 3 2 1 2 2 3 3 3 4 4 4 5 6 6 6 5 6 7 7 7 7 7 8 8 7 7 7 7 7 8 9 10 11 10 9 8 4 4 8 7 12 17 10 8 10 11 11 17 11 11 10 9 9 9 10 10 10 11 11 11 12 13 14 14 12 13 13 12 11 11 11 11 12 12 12 11 11 10 10
5 5 5 5 4 4 3 2 1 2 1 2 3 4 4 3 3 3 4 5 5 6 5 6 6 6 7 7 6 8 9 8 8 9 9 9 8 9 11 9 8 6 6 6 6 7 7 10 14 10 7 7 9 10 13 17 17 12 8 8 8 8 9 9 10 11 11 11 13 12 12 12 12 12 12 11 11 11 11 11 11 11 11 11 10 10 9
5 4 4 4 3 3 3 1 1 1 3 5 5 5 3 3 4 3 4 5 5 5 5 6 6 6 7 7 8 7 9 11 11 11 11 12 10 9 10 10 9 8 8 6 6 8 8 9 9 7 6 7 10 11 12 14 17 10 8 7 8 8 8 9 9 11 11 12 11 11 12 12 11 12 12 12 11 11 11 12 11 11 10 11 11 10 10
4 3 3 3 2 1 1 1 1 2 2 2 2 5 3 2 4 4 5 6 6 5 5 5 5 6 6 6 7 8 10 11 9 9 11 10 8 10 10 10 9 8 6 6 6 7 9 13 8 4 6 7 8 9 9 13 14 9 8 8 8 8 8 9 9 9 10 10 12 13 11 12 11 12 12 12 11 11 11 11 11 10 10 10 10 10 10
3 4 3 3 1 1 1 1 2 2 2 2 3 4 4 4 5 5 6 6 6 5 5 4 5 7 8 9 10 10 11 10 10 12 11 7 8 7 6 7 1 1 1 3 6 8 9 7 4 5 6 8 8 10 9 13 9 6 7 7 7 7 8 8 8 9 9 10 11 11 11 11 12 12 11 11 11 10 10 11 11 10 10 10 9 9 9
3 3 2 1 1 2 1 1 2 3 3 3 3 3 5 6 5 7 6 5 6 6 6 7 8 9 9 9 9 9 11 13 13 13 11 8 7 6 6 6 1 2 5 9 8 8 5 4 5 5 6 8 9 14 17 11 6 5 5 6 7 7 7 8 8 8 8 8 8 9 10 10 10 10 10 10 10 10 11 11 10 10 9 9 9 9 10
3 2 2 2 2 1 1 1 2 4 5 5 3 4 4 4 4 5 5 6 6 6 7 7 8 9 8 8 7 8 9 9 10 10 9 8 10 9 8 6 4 5 9 8 7 6 4 3 5 4 11 12 11 17 16 7 5 5 5 5 7 7 7 7 7 8 8 8 8 8 8 9 9 9 10 10 10 10 10 10 10 11 10 10 9 10 9
3 2 2 2 2 1 1 1 2 3 4 5 4 3 4 5 5 6 6 7 7 6 7 7 7 7 8 7 6 6 6 6 5 4 4 5 3 6 8 5 4 6 9 6 6 6 5 4 3 9 16 17 17 17 9 5 5 5 5 5 5 5 6 7 7 7 8 8 8 8 9 10 9 9 10 10 10 9 10 10 10 10 10 9 9 9 9
3 2 2 1 0 0 2 1 2 3 4 4 6 7 7 6 7 6 6 7 7 8 7 7 7 7 6 6 6 6 6 6 6 5 5 5 4 1 3 1 4 5 6 9 6 5 4 3 8 15 15 17 16 15 6 4 5 5 5 5 5 6 5 6 7 7 8 8 8 8 9 8 8 8 8 9 10 9 9 9 9 9 9 9 10 10 11
2 2 1 1 2 2 2 1 2 3 4 5 6 7 7 7 6 7 6 7 8 8 8 8 8 8 7 7 7 8 8 8 6 5 6 6 6 4 3 4 5 5 8 9 3 4 3 8 13 14 15 15 14 8 4 5 5 5 5 6 5 6 6 6 6 6 6 7 7 8 8 8 8 8 8 7 8 9 9 11 9 9 9 9 9 9 8
1 0 1 2 2 2 1 2 2 3 4 4 4 5 4 3 4 4 6 7 7 8 8 8 8 8 7 7 6 6 5 5 5 5 6 5 4 4 4 6 7 7 7 5 4 3 4 7 9 13 14 13 11 4 4 4 4 5 5 5 5 5 6 6 6 6 6 6 8 8 8 8 7 7 8 8 8 8 8 9 9 9 9 9 8 9 9
2 2 2 1 2 2 1 1 0 2 3 6 5 4 5 6 6 6 7 7 7 6 6 5 6 6 7 7 7 5 5 4 5 3 1 1 1 3 4 4 5 7 7 5 5 5 8 10 11 12 12 11 6 3 4 4 4 4 4 4 5 5 5 6 6 6 7 7 7 7 7 7 7 7 7 7 7 7 8 8 8 8 8 9 9 8 8
2 2 2 2 2 3 1 2 2 3 2 1 2 4 4 5 6 6 6 6 7 5 4 4 4 3 3 4 4 4 4 4 5 4 2 3 3 4 4 5 6 5 5 4 4 4 6 8 9 9 10 8 3 3 3 4 4 5 5 5 5 5 5 5 5 6 6 6 6 6 6 6 6 7 7 7 7 6 7 7 7 7 7 8 8 9 8
0 0 1 1 1 1 1 1 2 2 2 3 3 4 4 4 5 4 4 4 4 5 4 4 3 3 2 2 2 3 3 3 4 4 4 4 4 4 4 4 3 5 5 4 4 5 5 7 6 6 6 4 4 4 4 4 4 4 4 5 5 4 5 6 6 7 5 6 6 6 6 6 6 7 7 5 6 6 6 6 6 7 10 8 7 7 7
0 0 0 0 1 1 2 3 3 2 2 3 3 5 5 4 5 6 4 5 4 4 4 4 3 3 2 2 2 2 1 2 2 3 3 3 4 4 4 3 4 4 4 4 4 4 4 4 4 5 5 5 4 4 4 4 4 4 4 4 4 4 5 5 5 5 5 5 5 5 5 5 6 6 6 6 6 6 6 7 7 6 6 6 6 6 6
1 1 1 1 1 2 2 2 3 3 2 3 3 4 4 5 5 5 4 5 4 4 4 4 4 3 2 2 2 2 2 2 3 3 3 3 3 3 3 3 3 3 3 3 4 4 4 4 5 5 5 4 3 4 5 5 3 3 4 4 4 4 4 5 4 4 5 5 5 4 5 5 5 5 5 6 6 6 6 6 6 6 6 6 6 6 6
Wind_Direction
271 271 271 272 273 271 275 274 273 270 270 267 257 252 261 270 253 268 281 289 285 283 286 291 291 288 216 222 214 211 212 204 199 200 203 213 218 218 221 230 230 245 251 259 270 275 284 296 299 308 309 306 303 305 308 312 314 320 325 327 327 326 325 324 325 326 325 321 315 321 325 324 322 324 326 324 319 314 310 304 298 296 300 305 310 310 301
267 269 269 272 273 274 271 266 265 266 265 263 264 270 273 269 269 277 282 276 275 281 279 276 280 267 214 214 192 182 188 193 196 206 211 213 219 221 227 234 237 249 256 268 274 279 286 288 298 300 301 300 301 298 295 297 302 308 317 315 314 313 313 312 316 319 321 319 319 320 317 317 322 322 322 318 314 310 303 298 296 298 295 292 293 297 301
272 273 274 272 274 276 273 271 266 263 261 263 267 272 268 272 274 267 265 268 269 268 273 274 130 148 163 163 184 193 201 196 203 211 219 224 229 233 236 236 250 261 265 274 281 288 293 296 293 294 290 294 293 289 290 295 298 299 301 299 301 304 307 308 311 314 316 317 319 318 315 313 306 303 306 308 309 308 306 301 298 293 281 278 282 285 292
265 260 274 282 280 276 272 268 261 255 256 262 258 256 261 270 271 273 279 273 275 278 165 179 145 153 175 198 200 207 206 207 209 222 232 234 238 246 249 255 260 264 274 278 286 291 294 293 291 288 287 285 282 285 289 291 291 292 285 284 291 295 299 305 309 311 312 313 311 307 311 309 310 312 309 311 310 307 302 298 298 296 292 285 275 270 278
252 264 280 304 354 311 273 246 241 253 259 258 262 263 264 259 270 275 267 272 310 43 46 28 252 182 206 194 231 225 234 233 242 250 251 248 250 253 255 259 264 267 273 279 281 288 288 287 286 282 286 286 286 289 293 294 299 294 292 294 296 297 300 301 302 302 304 306 306 303 298 298 302 305 306 306 303 301 302 300 293 291 291 290 287 282 273
282 275 283 306 268 252 248 224 180 242 257 263 264 265 268 271 266 276 308 292 134 184 188 212 265 195 212 251 280 322 282 269 262 262 259 256 257 259 261 263 267 271 274 281 288 292 290 287 289 295 290 288 288 295 299 301 300 298 295 294 293 294 296 294 296 297 296 294 294 296 298 301 297 297 301 300 303 305 299 300 294 288 285 285 287 288 282
268 281 289 269 245 249 28 114 237 259 284 288 261 264 263 265 266 274 274 227 178 174 137 156 79 352 329 319 301 279 251 249 258 261 267 270 269 272 274 276 278 279 284 288 290 291 294 302 303 297 296 298 305 306 309 307 303 298 295 292 291 291 294 294 295 292 288 288 288 288 289 291 295 294 296 294 298 299 299 299 298 294 291 288 283 282 281
271 257 243 248 253 132 256 215 219 306 282 256 275 269 257 260 259 263 266 289 143 131 90 55 10 329 313 305 279 260 252 241 246 252 256 264 268 269 270 278 283 286 288 290 290 291 298 298 295 298 300 307 311 309 311 308 303 300 298 296 292 294 295 295 293 290 291 290 288 289 284 282 287 288 291 293 296 294 294 292 289 290 285 281 284 285 282
252 250 249 250 286 280 255 255 226 208 230 255 258 280 292 27 236 259 234 151 154 126 112 164 279 304 317 297 284 261 231 229 234 243 258 265 269 269 272 277 283 290 293 289 291 295 294 297 306 306 310 317 317 315 314 310 311 306 303 298 297 298 298 298 296 292 290 290 293 292 291 287 285 287 291 290 289 290 290 288 285 285 285 283 283 283 285
240 256 263 268 263 261 273 16 42 29 30 9 344 316 267 254 248 209 170 158 149 142 176 192 226 183 300 290 287 297 195 205 230 248 252 263 267 267 274 280 285 291 294 297 301 309 311 310 314 320 322 322 319 315 314 315 311 306 304 299 299 299 296 295 294 296 299 298 294 291 290 286 289 293 294 291 288 284 278 280 282 285 283 279 278 279 280
259 253 259 258 260 268 99 257 42 58 76 35 1 266 278 272 203 176 142 141 142 184 218 221 181 201 254 268 286 322 125 201 252 274 274 273 273 279 282 290 293 295 317 320 313 309 309 314 324 329 327 327 327 320 316 313 308 304 302 300 302 302 302 301 301 299 298 295 293 294 292 290 290 290 289 288 284 285 284 279 277 279 275 273 273 274 274
242 251 250 255 255 264 72 127 95 83 87 43 2 290 290 54 218 155 141 154 179 213 215 205 202 215 259 272 289 317 310 305 286 278 282 281 283 284 293 295 324 14 328 313 308 315 321 321 326 335 344 335 322 315 309 309 306 303 304 307 308 307 303 301 301 300 298 296 293 293 292 293 292 289 287 287 281 277 274 277 280 277 274 272 272 273 271
247 243 254 261 261 260 258 255 175 161 172 240 273 259 311 166 183 178 173 189 203 209 238 231 250 230 242 269 282 284 283 282 276 267 268 276 280 286 293 319 31 324 317 312 313 320 322 330 346 348 346 329 314 314 310 308 304 307 311 311 309 305 303 300 297 296 299 298 297 296 294 294 291 287 285 280 281 281 281 276 272 270 271 271 273 274 271
248 251 257 254 271 265 247 210 157 158 147 243 252 306 96 157 193 199 196 211 220 238 254 261 258 268 274 280 283 281 278 275 276 278 281 284 287 293 331 16 344 314 311 315 312 317 333 357 349 341 334 316 311 313 311 307 312 316 314 309 305 301 299 299 301 301 300 296 293 290 290 290 289 286 283 282 282 281 280 276 274 273 272 274 272 273 272
245 248 256 260 263 50 112 115 49 219 227 251 300 89 232 165 187 197 218 225 237 255 270 266 269 274 276 278 278 278 277 276 275 277 280 288 298 318 333 325 333 341 321 317 315 322 338 339 335 328 330 312 309 309 303 311 317 313 309 306 305 303 301 299 299 297 297 295 294 295 291 290 288 287 290 287 284 281 280 278 275 273 273 273 271 267 265
263 255 246 235 277 277 171 169 219 241 227 260 286 266 255 213 209 227 236 233 237 243 248 262 268 271 276 275 272 270 269 269 274 277 284 299 326 322 324 331 1 24 330 321 316 314 325 324 327 332 332 311 306 308 305 316 310 308 305 304 302 299 297 293 293 292 293 293 292 293 291 293 290 285 285 285 284 281 278 276 275 274 273 271 268 267 268
262 264 271 280 312 111 184 216 256 278 284 272 250 227 252 274 269 254 263 277 282 272 261 259 263 270 268 271 271 270 270 276 280 291 319 349 318 315 328 355 39 14 343 320 314 307 315 330 327 332 332 320 317 305 305 312 308 307 305 303 302 296 296 295 293 293 291 289 288 288 287 288 287 286 286 287 285 283 280 278 275 274 273 273 270 271 272
260 268 273 282 280 274 273 259 248 260 266 265 265 260 258 255 264 264 268 278 282 273 266 271 266 258 265 272 274 272 275 279 293 310 293 305 323 341 13 358 24 357 329 314 307 305 310 336 326 332 335 329 306 300 311 310 305 306 305 303 299 294 293 292 289 291 292 289 285 282 281 280 279 280 284 288 286 285 283 279 277 276 276 275 274 274 274
265 263 255 250 256 265 269 266 259 248 244 253 260 261 260 267 271 275 276 274 270 269 271 264 263 261 263 270 273 277 281 284 288 303 315 333 9 10 357 354 4 334 326 311 305 308 305 321 329 324 322 306 295 299 303 302 302 301 299 297 294 292 293 293 292 291 290 289 290 288 285 287 284 285 285 283 281 283 281 281 280 279 279 278 278 277 278
245 255 262 264 261 264 266 266 268 268 266 265 261 263 267 267 267 269 272 269 267 262 258 250 255 262 266 268 270 273 279 292 311 326 350 3 357 346 350 334 337 314 303 299 304 306 303 313 317 310 304 302 302 299 297 301 301 299 296 295 293 294 294 295 293 292 289 289 289 291 292 290 289 287 283 280 281 279 281 280 280 280 278 277 278 280 282
252 258 263 265 268 265 264 263 260 263 269 274 275 273 276 281 282 276 257 240 253 255 259 266 266 267 264 269 278 282 292 307 316 343 2 354 341 331 324 320 321 307 306 301 297 300 298 305 303 299 296 294 296 294 294 298 299 298 297 297 294 293 294 294 291 289 287 289 294 294 291 288 280 276 283 284 279 279 270 267 269 272 272 271 271 273 274
252 247 248 252 259 267 270 263 267 274 276 280 280 279 266 271 281 275 256 227 206 235 261 265 258 249 258 258 274 280 301 310 342 344 344 333 323 314 311 309 305 298 296 299 300 297 294 297 294 296 292 295 293 290 296 297 296 295 297 298 296 294 293 292 291 293 295 296 294 289 287 286 285 283 272 276 279 279 282 278 277 276 276 275 275 270 272
242 241 243 244 252 262 267 276 277 271 271 277 280 274 270 277 283 286 277 253 190 210 213 190 215 239 254 273 20 324 298 314 347 339 325 317 314 311 310 304 297 299 305 305 297 292 291 296 295 295 296 296 293 292 291 294 295 294 296 297 296 295 295 293 294 297 296 292 288 286 285 286 286 285 289 281 278 280 280 283 283 282 280 279 279 278 276
253 254 259 259 259 265 273 278 282 283 281 264 258 262 272 279 252 141 236 246 250 234 170 135 86 357 327 3 23 297 305 314 327 316 316 315 308 300 294 290 302 307 302 301 296 294 298 298 297 298 297 295 295 295 294 293 292 292 293 295 295 295 296 294 295 294 288 286 287 286 286 284 284 287 287 291 288 278 281 284 286 287 287 285 284 282 281
252 249 255 260 264 266 271 281 284 279 152 185 235 252 266 233 118 128 196 191 71 184 209 172 122 80 92 5 8 330 321 321 318 315 311 300 288 284 289 296 292 292 295 296 294 295 294 297 298 298 297 296 298 294 293 296 298 293 291 291 292 294 293 293 291 289 287 287 285 286 286 286 286 286 289 291 292 295 286 283 285 286 286 286 285 285 284
247 253 256 258 263 266 272 278 269 255 226 179 213 159 85 65 80 109 105 96 107 97 140 202 165 80 70 49 13 349 323 298 309 313 300 290 286 285 282 280 290 296 293 293 294 291 291 292 294 295 292 292 295 295 299 299 296 292 294 293 291 290 291 291 291 289 288 285 285 285 283 285 285 287 286 286 288 289 294 296 290 284 283 284 284 285 285
246 249 254 259 259 261 260 259 271 62 72 67 92 93 92 96 95 79 69 72 66 67 75 62 66 50 41 24 354 310 293 300 310 294 282 283 281 278 282 294 292 291 291 292 289 285 286 288 290 290 287 290 296 299 299 297 298 300 297 292 289 288 287 288 289 288 286 286 286 286 286 285 285 286 285 286 286 289 290 292 293 293 293 289 286 286 286
250 246 236 238 243 248 247 93 86 91 82 92 105 111 99 93 83 90 99 116 113 93 86 88 64 44 5 352 345 310 307 296 286 286 287 279 282 292 293 292 293 292 290 288 285 280 279 284 283 286 290 295 299 299 299 301 305 299 293 294 294 292 293 291 290 288 288 289 288 287 287 286 286 285 286 287 287 285 286 286 288 290 291 288 289 291 290
249 242 240 249 268 70 92 124 112 124 123 98 90 83 104 107 125 143 185 158 113 92 175 115 82 40 355 320 332 306 297 293 288 284 282 289 289 292 295 295 290 287 285 281 279 278 280 287 293 293 291 298 301 301 304 309 305 302 301 299 297 297 295 294 293 291 291 288 286 286 287 288 288 288 286 285 284 284 284 285 286 285 287 291 293 292 293
248 92 84 82 64 107 148 193 217 177 141 148 129 128 138 144 184 182 173 153 151 172 183 71 346 314 325 304 292 284 284 284 286 290 288 286 289 294 293 290 289 279 274 270 279 293 297 296 296 295 294 302 305 305 313 314 306 299 296 296 294 293 294 294 294 294 292 289 289 290 290 289 288 287 286 284 284 283 283 283 284 287 289 291 293 295 297
86 63 69 75 77 102 215 230 145 151 129 133 158 154 155 155 190 188 181 166 153 204 214 222 266 276 277 268 275 280 283 282 282 282 285 286 288 286 286 289 293 296 296 293 292 293 294 296 295 289 296 304 306 314 320 312 305 303 301 299 296 295 296 298 298 296 293 293 292 292 290 289 287 287 286 286 285 283 282 280 283 283 284 286 286 288 288
112 94 93 137 159 181 201 215 196 184 170 149 153 195 184 174 189 195 180 180 223 212 244 248 243 248 257 273 282 282 279 278 278 277 276 280 282 281 280 280 277 279 280 283 287 292 295 295 293 293 301 308 313 318 317 308 306 304 301 302 299 300 298 299 298 296 296 294 294 291 290 290 289 288 288 287 284 283 281 282 282 281 281 283 285 284 285
146 262 264 206 157 254 233 211 192 190 159 172 179 151 112 122 146 172 196 212 243 245 245 249 251 253 265 273 277 275 275 279 279 275 273 267 264 271 282 282 281 280 282 284 288 290 288 287 287 299 309 310 312 318 311 303 304 303 301 301 299 297 297 298 297 299 297 295 294 291 292 291 291 289 287 286 284 282 280 279 278 279 278 279 280 280 281
212 233 267 87 175 204 214 210 170 150 135 141 141 141 163 169 163 184 206 238 249 257 253 257 258 261 261 266 266 272 278 290 289 280 275 289 291 290 285 285 283 282 279 283 286 283 281 280 294 306 305 307 316 317 305 302 304 303 300 299 297 297 299 298 301 301 299 299 297 296 296 294 293 292 292 292 290 284 281 278 279 280 282 280 279 279 281
79 76 85 86 60 58 37 99 144 150 146 155 159 153 164 161 185 203 227 236 244 249 260 264 263 257 258 253 261 262 267 260 269 277 277 280 284 289 288 288 288 287 288 283 280 276 277 293 301 300 305 312 319 310 300 300 300 300 300 299 299 298 297 299 302 302 302 300 301 301 301 301 299 299 298 296 297 293 280 276 276 277 278 279 279 283 284
83 89 83 80 64 60 71 65 66 80 102 114 130 151 181 197 216 237 233 244 255 266 270 268 264 260 254 249 261 265 264 267 269 272 278 280 280 287 292 294 295 294 293 292 278 258 303 302 303 313 319 321 320 305 298 300 301 304 303 304 300 300 301 302 302 302 302 304 306 307 306 306 305 304 305 308 308 311 310 302 295 293 291 286 288 289 290
60 84 91 91 88 80 73 81 87 108 133 155 193 199 220 226 233 246 258 261 266 267 266 263 257 255 252 252 259 264 265 265 265 269 274 283 289 291 291 291 289 281 280 284 297 338 315 304 309 318 326 326 313 298 303 308 311 313 309 304 301 303 305 306 308 308 309 310 311 311 312 312 313 312 314 316 316 319 317 317 321 321 317 321 327 329 332
81 77 83 88 94 96 87 80 87 98 153 255 247 235 235 238 243 242 252 259 257 259 261 255 254 262 269 269 261 260 263 265 266 270 272 276 280 286 286 280 279 278 282 285 319 319 308 307 312 319 332 321 303 301 302 307 317 318 309 307 305 306 306 308 310 311 313 313 315 314 314 315 316 318 319 319 321 322 323 326 327 325 327 327 329 332 336
105 94 84 83 91 99 121 110 109 183 192 223 255 261 257 255 265 266 252 256 257 258 256 253 255 260 260 267 270 272 273 273 272 271 272 274 275 275 272 274 271 267 267 290 306 304 304 305 311 318 328 307 300 295 299 308 322 320 312 307 307 306 311 313 315 314 314 315 316 317 318 316 318 319 321 324 324 324 326 329 329 332 334 333 334 336 338
118 119 115 118 112 115 120 212 195 220 226 222 247 274 281 276 271 262 263 265 268 264 259 264 266 270 275 270 275 275 272 272 272 271 272 277 281 279 279 267 248 246 247 273 295 300 300 306 313 324 318 304 302 302 307 317 323 320 318 317 315 314 313 314 316 318 319 321 320 322 321 321 322 322 324 327 328 331 333 333 335 337 338 340 341 339 339
135 142 147 139 160 166 209 219 251 248 249 258 255 263 270 267 270 269 264 263 267 266 259 254 264 264 259 260 260 265 273 277 275 270 270 278 276 269 268 281 268 184 214 315 314 303 303 305 332 330 318 310 307 310 315 319 319 315 320 320 320 319 319 321 321 322 323 323 324 323 324 325 324 325 328 329 331 334 335 337 337 338 341 344 342 342 342
123 121 126 155 171 201 220 259 279 281 271 252 252 254 259 258 254 254 266 271 275 271 271 268 257 258 261 261 262 266 268 270 271 271 264 245 251 267 278 271 306 314 336 328 312 306 299 314 345 331 317 314 311 314 321 317 311 315 322 327 326 321 319 319 321 321 321 320 320 321 324 325 326 328 329 330 333 336 338 338 338 340 345 345 345 345 345
134 136 178 192 205 232 242 252 274 285 292 290 266 253 253 252 249 258 258 261 262 267 264 261 263 265 264 265 269 275 277 274 270 264 262 247 233 230 242 268 308 311 326 319 309 306 312 332 335 324 317 316 313 318 321 315 318 317 324 326 324 325 322 321 321 321 323 326 328 329 329 330 333 335 334 337 337 336 340 341 345 347 347 347 345 350 353
159 188 193 195 208 217 228 265 260 270 275 282 302 306 299 293 283 276 275 273 272 262 256 259 259 257 259 257 253 262 270 271 272 271 281 286 261 226 216 243 281 308 314 313 312 311 319 330 333 320 316 317 318 322 318 307 316 322 334 327 323 323 327 329 327 324 324 324 330 332 333 335 336 337 340 339 338 340 343 346 351 353 352 350 351 355 358
188 189 203 205 302 306 274 255 259 275 297 313 311 299 293 284 280 268 260 259 259 262 255 253 252 252 254 251 248 250 258 272 276 287 285 283 289 285 127 192 306 313 307 315 308 311 324 328 321 317 314 317 321 321 313 315 320 325 327 325 324 325 327 331 331 327 326 330 333 331 333 335 337 341 343 340 341 340 343 345 352 356 355 356 358 2 8
198 196 193 221 224 218 248 285 302 316 301 300 295 288 279 265 261 267 255 247 251 252 248 253 257 260 259 263 264 266 261 260 254 248 249 250 262 287 347 331 314 303 306 308 309 324 329 323 317 313 316 319 323 321 315 321 326 326 329 328 327 328 329 329 330 329 331 334 336 338 340 339 340 342 344 346 347 345 342 347 351 359 2 3 6 9 12
154 191 186 204 251 264 287 302 319 300 293 289 281 282 283 279 273 262 269 264 254 256 256 256 254 255 250 245 250 270 277 281 279 259 243 246 254 272 296 303 298 299 306 313 318 324 316 316 312 314 317 320 319 311 316 329 332 333 331 334 330 331 330 330 329 332 332 334 336 338 337 340 343 341 342 346 349 353 352 354 356 360 1 1 2 3 4
172 213 238 226 247 273 324 317 291 264 248 249 256 280 285 284 283 281 277 274 270 262 256 250 244 242 239 240 248 254 261 274 285 281 158 223 293 303 301 301 299 310 317 326 333 310 291 293 306 311 317 320 313 325 327 334 333 330 331 335 332 333 338 338 338 342 334 334 337 345 348 350 348 348 346 353 354 1 360 358 356 353 354 5 10 6 5
196 215 256 249 251 261 236 243 241 254 263 272 272 276 277 277 280 274 272 265 262 266 266 255 251 260 265 248 243 247 249 237 243 270 314 325 309 308 293 289 297 328 348 337 320 303 288 293 303 314 327 322 324 327 328 330 325 328 330 330 330 330 338 335 335 337 335 334 335 340 340 340 345 348 347 349 353 354 352 358 1 5 356 359 4 5 6
192 204 227 219 215 219 227 262 274 282 301 307 293 298 299 296 296 300 309 314 308 303 301 303 304 297 280 267 257 258 251 257 262 273 284 294 298 285 285 297 313 331 331 313 294 289 288 302 311 329 338 328 328 327 325 324 319 326 325 324 325 320 326 326 325 333 337 334 334 336 339 340 339 337 338 346 346 344 350 349 353 347 353 7 10 8 9
178 210 257 300 271 269 224 228 249 284 293 286 283 291 296 296 292 298 302 308 311 308 305 311 305 293 283 283 281 275 277 272 278 301 314 307 294 291 294 308 320 319 305 291 290 296 311 321 326 327 328 325 317 316 318 319 311 308 314 320 316 315 319 329 332 337 336 332 329 333 336 341 340 338 346 348 341 339 342 347 351 359 360 359 359 357 359
247 279 285 267 250 268 272 254 237 229 242 278 296 304 300 295 297 297 295 303 312 307 312 313 309 316 320 318 329 322 318 341 342 339 313 292 297 292 313 329 327 309 296 297 304 306 305 308 309 302 304 305 305 306 306 304 302 304 307 306 316 317 316 316 324 330 329 331 330 332 333 342 338 340 346 343 342 340 338 343 344 347 349 350 348 351 351